| time (UTC) | temp F | wind direction | speed knots | gust knots | rain 1hr in | rain 24hr in | rain mn in | humidity % | barometer mb |
| 20260903212225 | 102 | 121 | 3.5 | 10.4 | 0.00 | 0.00 | 0.00 | 30 | 1008.6 |
| 20260903211325 | 102 | 137 | 3.5 | 8.7 | 0.00 | 0.00 | 0.00 | 30 | 1008.7 |
| 20260903210425 | 101 | 150 | 2.6 | 7.8 | 0.00 | 0.00 | 0.00 | 30 | 1008.9 |
| 20260903205525 | 102 | 187 | 4.3 | 10.4 | 0.00 | 0.00 | 0.00 | 29 | 1009.1 |
| 20260903204625 | 101 | 157 | 4.3 | 7.8 | 0.00 | 0.00 | 0.00 | 30 | 1009.2 |
| 20260903203725 | 101 | 173 | 4.3 | 8.7 | 0.00 | 0.00 | 0.00 | 29 | 1009.4 |
| 20260903202825 | 101 | 190 | 4.3 | 8.7 | 0.00 | 0.00 | 0.00 | 30 | 1009.6 |
| 20260903201925 | 101 | 177 | 4.3 | 11.3 | 0.00 | 0.00 | 0.00 | 29 | 1009.7 |
| 20260903201025 | 101 | 187 | 3.5 | 8.7 | 0.00 | 0.00 | 0.00 | 31 | 1009.7 |
| 20260903200125 | 101 | 158 | 4.3 | 9.6 | 0.00 | 0.00 | 0.00 | 30 | 1009.8 |
| 20260903195225 | 100 | 150 | 2.6 | 7.8 | 0.00 | 0.00 | 0.00 | 32 | 1009.9 |
| 20260903194325 | 98 | 125 | 2.6 | 7.0 | 0.00 | 0.00 | 0.00 | 32 | 1010.0 |
| 20260903193425 | 99 | 189 | 4.3 | 7.0 | 0.00 | 0.00 | 0.00 | 33 | 1010.2 |
| 20260903192525 | 99 | 128 | 3.5 | 10.4 | 0.00 | 0.00 | 0.00 | 34 | 1010.3 |
| 20260903191625 | 99 | 202 | 3.5 | 8.7 | 0.00 | 0.00 | 0.00 | 34 | 1010.5 |
| 20260903190725 | 98 | 148 | 3.5 | 10.4 | 0.00 | 0.00 | 0.00 | 34 | 1010.7 |
| 20260903185825 | 99 | 141 | 3.5 | 9.6 | 0.00 | 0.00 | 0.00 | 33 | 1010.8 |
| 20260903184025 | 98 | 160 | 3.5 | 9.6 | 0.00 | 0.00 | 0.00 | 36 | 1011.1 |
| 20260903182225 | 97 | 156 | 3.5 | 10.4 | 0.00 | 0.00 | 0.00 | 36 | 1011.4 |
| 20260903181325 | 97 | 149 | 3.5 | 7.8 | 0.00 | 0.00 | 0.00 | 37 | 1011.6 |
| 20260903180425 | 96 | 176 | 3.5 | 8.7 | 0.00 | 0.00 | 0.00 | 37 | 1011.7 |
| 20260903175525 | 97 | 160 | 3.5 | 10.4 | 0.00 | 0.00 | 0.00 | 38 | 1011.8 |
| 20260903174625 | 96 | 168 | 3.5 | 9.6 | 0.00 | 0.00 | 0.00 | 39 | 1011.9 |
| 20260903173725 | 95 | 157 | 3.5 | 7.8 | 0.00 | 0.00 | 0.00 | 41 | 1011.9 |
| 20260903172825 | 95 | 132 | 3.5 | 8.7 | 0.00 | 0.00 | 0.00 | 39 | 1011.9 |
| 20260903171925 | 95 | 127 | 3.5 | 10.4 | 0.00 | 0.00 | 0.00 | 41 | 1012.0 |
| 20260903171025 | 95 | 131 | 3.5 | 10.4 | 0.00 | 0.00 | 0.00 | 42 | 1012.0 |
| 20260903170125 | 93 | 107 | 3.5 | 8.7 | 0.00 | 0.00 | 0.00 | 44 | 1012.0 |
| 20260903165225 | 94 | 142 | 2.6 | 8.7 | 0.00 | 0.00 | 0.00 | 43 | 1012.0 |
| 20260903164325 | 93 | 109 | 2.6 | 7.8 | 0.00 | 0.00 | 0.00 | 43 | 1012.0 |
| 20260903163425 | 93 | 162 | 2.6 | 7.8 | 0.00 | 0.00 | 0.00 | 44 | 1012.0 |
| 20260903162525 | 92 | 142 | 2.6 | 7.0 | 0.00 | 0.00 | 0.00 | 46 | 1012.1 |
| 20260903161625 | 92 | 141 | 2.6 | 7.0 | 0.00 | 0.00 | 0.00 | 46 | 1012.2 |
| 20260903155825 | 91 | 163 | 2.6 | 6.1 | 0.00 | 0.00 | 0.00 | 49 | 1012.3 |
| 20260903154925 | 90 | 168 | 1.7 | 7.8 | 0.00 | 0.00 | 0.00 | 50 | 1012.3 |
| 20260903154025 | 90 | 191 | 1.7 | 5.2 | 0.00 | 0.00 | 0.00 | 50 | 1012.3 |
| 20260903153125 | 89 | 174 | 2.6 | 5.2 | 0.00 | 0.00 | 0.00 | 52 | 1012.3 |
| 20260903152225 | 89 | 162 | 2.6 | 5.2 | 0.00 | 0.00 | 0.00 | 52 | 1012.3 |
| 20260903150425 | 88 | 128 | 1.7 | 3.5 | 0.00 | 0.00 | 0.00 | 55 | 1012.3 |
| 20260903145525 | 87 | 161 | 1.7 | 5.2 | 0.00 | 0.00 | 0.00 | 56 | 1012.4 |
| 20260903144625 | 86 | 144 | 1.7 | 4.3 | 0.00 | 0.00 | 0.00 | 57 | 1012.4 |
| 20260903143725 | 86 | 150 | 0.9 | 4.3 | 0.00 | 0.00 | 0.00 | 58 | 1012.4 |
| 20260903142825 | 85 | 136 | 0.9 | 6.1 | 0.00 | 0.00 | 0.00 | 59 | 1012.4 |
| 20260903141925 | 85 | 102 | 0.9 | 5.2 | 0.00 | 0.00 | 0.00 | 60 | 1012.3 |
| 20260903135225 | 84 | 95 | 0.0 | 1.7 | 0.00 | 0.00 | 0.00 | 61 | 1012.0 |
| 20260903134325 | 84 | 95 | 0.0 | 1.7 | 0.00 | 0.00 | 0.00 | 61 | 1011.8 |
| 20260903133425 | 84 | 95 | 0.9 | 1.7 | 0.00 | 0.00 | 0.00 | 61 | 1011.7 |
| 20260903132525 | 84 | 96 | 0.9 | 2.6 | 0.00 | 0.00 | 0.00 | 60 | 1011.5 |
| 20260903131625 | 84 | 96 | 0.9 | 3.5 | 0.00 | 0.00 | 0.00 | 60 | 1011.5 |
| 20260903130725 | 84 | 97 | 0.0 | 3.5 | 0.00 | 0.00 | 0.00 | 59 | 1011.4 |
| 20260903124925 | 84 | 98 | 1.7 | 3.5 | 0.00 | 0.00 | 0.00 | 58 | 1011.2 |
| 20260903124025 | 84 | 103 | 1.7 | 3.5 | 0.00 | 0.00 | 0.00 | 57 | 1011.2 |
| 20260903123125 | 84 | 111 | 0.0 | 5.2 | 0.00 | 0.00 | 0.00 | 57 | 1011.1 |
| 20260903122225 | 84 | 119 | 0.9 | 2.6 | 0.00 | 0.00 | 0.00 | 57 | 1011.0 |
| 20260903121325 | 84 | 120 | 0.0 | 3.5 | 0.00 | 0.00 | 0.00 | 57 | 1010.9 |
| 20260903120425 | 84 | 122 | 0.0 | 0.9 | 0.00 | 0.00 | 0.00 | 56 | 1010.8 |
| 20260903115524 | 84 | 122 | 0.0 | 0.9 | 0.00 | 0.00 | 0.00 | 55 | 1010.7 |
| 20260903114624 | 84 | 122 | 0.0 | 2.6 | 0.00 | 0.00 | 0.00 | 55 | 1010.7 |
| 20260903113724 | 84 | 122 | 0.0 | 0.9 | 0.00 | 0.00 | 0.00 | 55 | 1010.6 |
| 20260903111925 | 85 | 122 | 0.9 | 2.6 | 0.00 | 0.00 | 0.00 | 54 | 1010.6 |
| 20260903111024 | 85 | 122 | 0.9 | 1.7 | 0.00 | 0.00 | 0.00 | 54 | 1010.5 |
| 20260903110125 | 85 | 123 | 0.0 | 1.7 | 0.00 | 0.00 | 0.00 | 54 | 1010.5 |
| 20260903105225 | 84 | 0 | 0.0 | 0.0 | 0.00 | 0.00 | 0.00 | 54 | 1010.5 |
| 20260903103424 | 85 | 123 | 0.0 | 1.7 | 0.00 | 0.00 | 0.00 | 52 | 1010.4 |
| 20260903102524 | 85 | 122 | 0.0 | 0.9 | 0.00 | 0.00 | 0.00 | 52 | 1010.4 |
| 20260903101624 | 85 | 122 | 0.0 | 0.9 | 0.00 | 0.00 | 0.00 | 51 | 1010.3 |
| 20260903100724 | 86 | 123 | 0.9 | 2.6 | 0.00 | 0.00 | 0.00 | 51 | 1010.4 |
| 20260903095824 | 85 | 127 | 0.0 | 2.6 | 0.00 | 0.00 | 0.00 | 51 | 1010.5 |
| 20260903094024 | 85 | 163 | 0.0 | 1.7 | 0.00 | 0.00 | 0.00 | 52 | 1010.5 |
| 20260903091324 | 86 | 164 | 0.0 | 1.7 | 0.00 | 0.00 | 0.00 | 51 | 1010.4 |
| 20260903090424 | 86 | 164 | 0.0 | 0.9 | 0.00 | 0.00 | 0.00 | 51 | 1010.3 |
| 20260903085524 | 86 | 164 | 0.0 | 3.5 | 0.00 | 0.00 | 0.00 | 50 | 1010.2 |
| 20260903084624 | 87 | 163 | 0.0 | 0.9 | 0.00 | 0.00 | 0.00 | 50 | 1010.3 |
| 20260903081924 | 88 | 163 | 0.0 | 3.5 | 0.00 | 0.00 | 0.00 | 49 | 1010.3 |
| 20260903081024 | 88 | 162 | 0.0 | 3.5 | 0.00 | 0.00 | 0.00 | 48 | 1010.3 |
| 20260903080124 | 88 | 162 | 0.0 | 0.9 | 0.00 | 0.00 | 0.00 | 48 | 1010.4 |
| 20260903075224 | 89 | 161 | 0.9 | 3.5 | 0.00 | 0.00 | 0.00 | 47 | 1010.3 |
| 20260903074324 | 89 | 161 | 0.9 | 1.7 | 0.00 | 0.00 | 0.00 | 47 | 1010.3 |
| 20260903073424 | 90 | 161 | 0.0 | 3.5 | 0.00 | 0.00 | 0.00 | 46 | 1010.4 |
| 20260903072524 | 90 | 161 | 0.9 | 1.7 | 0.00 | 0.00 | 0.00 | 44 | 1010.3 |
| 20260903071624 | 90 | 162 | 0.9 | 3.5 | 0.00 | 0.00 | 0.00 | 40 | 1010.3 |
| 20260903070724 | 91 | 184 | 0.9 | 3.5 | 0.00 | 0.00 | 0.00 | 34 | 1010.3 |
| 20260903065824 | 91 | 286 | 1.7 | 3.5 | 0.00 | 0.00 | 0.00 | 27 | 1010.2 |
| 20260903064924 | 92 | 284 | 1.7 | 5.2 | 0.00 | 0.00 | 0.00 | 27 | 1010.0 |
| 20260903064024 | 92 | 272 | 1.7 | 6.1 | 0.00 | 0.00 | 0.00 | 27 | 1010.0 |
| 20260903063124 | 92 | 276 | 1.7 | 6.1 | 0.00 | 0.00 | 0.00 | 27 | 1009.9 |
| 20260903062224 | 93 | 273 | 2.6 | 3.5 | 0.00 | 0.00 | 0.00 | 27 | 1009.9 |
| 20260903061324 | 93 | 267 | 3.5 | 6.1 | 0.00 | 0.00 | 0.00 | 28 | 1010.0 |
| 20260903060424 | 93 | 263 | 3.5 | 7.0 | 0.00 | 0.00 | 0.00 | 29 | 1010.0 |
| 20260903055524 | 93 | 262 | 2.6 | 7.0 | 0.00 | 0.00 | 0.00 | 32 | 1009.9 |
| 20260903054624 | 93 | 262 | 3.5 | 7.0 | 0.00 | 0.00 | 0.00 | 35 | 1009.9 |
| 20260903052824 | 93 | 274 | 0.9 | 2.6 | 0.00 | 0.00 | 0.00 | 39 | 1010.1 |
| 20260903051924 | 93 | 272 | 0.9 | 2.6 | 0.00 | 0.00 | 0.00 | 38 | 1010.0 |
| 20260903051024 | 94 | 269 | 1.7 | 3.5 | 0.00 | 0.00 | 0.00 | 37 | 1010.0 |
| 20260903050124 | 94 | 270 | 1.7 | 3.5 | 0.00 | 0.00 | 0.00 | 37 | 1010.0 |
| 20260903045224 | 94 | 269 | 1.7 | 3.5 | 0.00 | 0.00 | 0.00 | 37 | 1010.0 |
| 20260903044324 | 94 | 259 | 1.7 | 6.1 | 0.00 | 0.00 | 0.00 | 37 | 1010.0 |
| 20260903043424 | 95 | 272 | 2.6 | 5.2 | 0.00 | 0.00 | 0.00 | 37 | 1010.0 |
| 20260903041624 | 95 | 257 | 2.6 | 6.1 | 0.00 | 0.00 | 0.00 | 36 | 1009.9 |
| 20260903035824 | 96 | 272 | 2.6 | 7.0 | 0.00 | 0.00 | 0.00 | 36 | 1009.8 |
| 20260903034024 | 96 | 275 | 3.5 | 7.0 | 0.00 | 0.00 | 0.00 | 34 | 1009.5 |
| 20260903033124 | 96 | 272 | 2.6 | 7.0 | 0.00 | 0.00 | 0.00 | 34 | 1009.4 |
| 20260903032224 | 96 | 273 | 1.7 | 6.1 | 0.00 | 0.00 | 0.00 | 33 | 1009.3 |
| 20260903031324 | 96 | 282 | 2.6 | 3.5 | 0.00 | 0.00 | 0.00 | 33 | 1009.3 |
| 20260903030424 | 96 | 273 | 3.5 | 6.1 | 0.00 | 0.00 | 0.00 | 32 | 1009.3 |
| 20260903025524 | 97 | 264 | 3.5 | 7.8 | 0.00 | 0.00 | 0.00 | 32 | 1009.2 |
| 20260903023724 | 97 | 266 | 4.3 | 7.8 | 0.00 | 0.00 | 0.00 | 32 | 1009.0 |
| 20260903022824 | 97 | 270 | 5.2 | 7.8 | 0.00 | 0.00 | 0.00 | 31 | 1009.0 |
| 20260903021924 | 97 | 268 | 4.3 | 9.6 | 0.00 | 0.00 | 0.00 | 31 | 1008.9 |
| 20260903021024 | 98 | 270 | 4.3 | 7.8 | 0.00 | 0.00 | 0.00 | 32 | 1008.7 |
| 20260903020124 | 98 | 277 | 4.3 | 7.8 | 0.00 | 0.00 | 0.00 | 32 | 1008.6 |
| 20260903015224 | 98 | 286 | 5.2 | 7.8 | 0.00 | 0.00 | 0.00 | 32 | 1008.6 |
| 20260903013424 | 99 | 266 | 4.3 | 10.4 | 0.00 | 0.00 | 0.00 | 31 | 1008.5 |
| 20260903011624 | 100 | 294 | 6.1 | 11.3 | 0.00 | 0.00 | 0.00 | 30 | 1008.4 |
| 20260903010724 | 100 | 282 | 6.1 | 9.6 | 0.00 | 0.00 | 0.00 | 30 | 1008.5 |
| 20260903005824 | 101 | 276 | 4.3 | 11.3 | 0.00 | 0.00 | 0.00 | 29 | 1008.4 |
| 20260903004924 | 100 | 291 | 5.2 | 10.4 | 0.00 | 0.00 | 0.00 | 30 | 1008.4 |
| 20260903004024 | 101 | 298 | 4.3 | 10.4 | 0.00 | 0.00 | 0.00 | 29 | 1008.4 |
| 20260903003124 | 101 | 265 | 5.2 | 9.6 | 0.00 | 0.00 | 0.00 | 28 | 1008.5 |
| 20260903002224 | 102 | 276 | 6.1 | 10.4 | 0.00 | 0.00 | 0.00 | 28 | 1008.5 |
| 20260903000424 | 103 | 262 | 4.3 | 10.4 | 0.00 | 0.00 | 0.00 | 27 | 1008.6 |
| 20260902235524 | 103 | 281 | 5.2 | 10.4 | 0.00 | 0.00 | 0.00 | 27 | 1008.7 |
| 20260902234624 | 103 | 253 | 3.5 | 10.4 | 0.00 | 0.00 | 0.00 | 27 | 1008.7 |
| 20260902233723 | 103 | 277 | 2.6 | 8.7 | 0.00 | 0.00 | 0.00 | 27 | 1008.8 |
| 20260902232824 | 103 | 273 | 5.2 | 9.6 | 0.00 | 0.00 | 0.00 | 26 | 1008.9 |
| 20260902231924 | 103 | 268 | 3.5 | 10.4 | 0.00 | 0.00 | 0.00 | 26 | 1009.1 |
| 20260902231023 | 104 | 256 | 4.3 | 9.6 | 0.00 | 0.00 | 0.00 | 25 | 1009.2 |
| 20260902230123 | 103 | 270 | 3.5 | 12.2 | 0.00 | 0.00 | 0.00 | 26 | 1009.3 |
| 20260902223424 | 103 | 246 | 4.3 | 9.6 | 0.00 | 0.00 | 0.00 | 25 | 1009.6 |
| 20260902221623 | 105 | 285 | 1.7 | 11.3 | 0.00 | 0.00 | 0.00 | 25 | 1009.9 |
| 20260902220724 | 103 | 300 | 2.6 | 3.5 | 0.00 | 0.00 | 0.00 | 26 | 1009.8 |
| 20260902215824 | 103 | 260 | 4.3 | 6.1 | 0.00 | 0.00 | 0.00 | 26 | 1010.0 |
| 20260902214923 | 104 | 288 | 5.2 | 10.4 | 0.00 | 0.00 | 0.00 | 25 | 1010.2 |
| 20260902214023 | 105 | 283 | 6.1 | 11.3 | 0.00 | 0.00 | 0.00 | 24 | 1010.2 |
| 20260902213123 | 105 | 259 | 5.2 | 12.2 | 0.00 | 0.00 | 0.00 | 24 | 1010.2 |